Preview of NWS' New Version of Forecast
This preview is not operational and should not be used for support decisions.

Regional Weather Roundup (RWR)

Issued by National Weather Service (NWS)

                            
000
ASUS43 KDTX 181901
RWRMI 
MICHIGAN HOURLY REGIONAL WEATHER ROUNDUP
NATIONAL WEATHER SERVICE DETROIT/PONTIAC MI
200 PM EST MON FEB 18 2019

NOTE: "FAIR" INDICATES FEW OR NO CLOUDS BELOW 12,000 FEET WITH NO
SIGNIFICANT WEATHER AND/OR OBSTRUCTION TO VISIBILITY.

MIZ047>049-052>055-059>063-066>070-074>076-081>083-182000-
SOUTHEAST LOWER MICHIGAN
  
CITY           SKY/WX    TMP DP  RH WIND       PRES   REMARKS
ADRIAN         FAIR      25  14  63 N13       30.27R WCI  14          
ALMA           FAIR      23   4  45 NW9       30.31R WCI  13          
ANN ARBOR      PTSUNNY   26  13  57 NW10G22   30.26R WCI  16          
BAD AXE        LGT SNOW  21  14  76 N13G20    30.27R WCI   8          
CARO           LGT SNOW  21  16  78 N9        30.28R WCI  11          
DETROIT CITY   CLOUDY    27  14  58 N10       30.26R WCI  17          
DETROIT        PTSUNNY   28  15  58 N9        30.26R WCI  19          
FLINT          CLOUDY    23  12  62 N13       30.29R WCI  11          
GROSSE ILE     PTSUNNY   27  16  62 NW8       30.26R WCI  18          
HILLSDALE      FAIR      27  14  58 NW12      30.24R WCI  17          
HOWELL         PTSUNNY   24  11  58 N9        30.27R WCI  15          

CITY           SKY/WX    TMP DP  RH WIND       PRES   REMARKS
JACKSON        CLOUDY    26  15  63 NW9       30.26R WCI  17          
LAMBERTVILLE   PTSUNNY   29  19  66 N10       30.27R WCI  19          
LANSING        FAIR      24  12  60 NW8       30.30R WCI  15          
LAPEER         LGT SNOW  24  13  64 N7        30.26R WCI  16          
MASON          FAIR      24  14  65 NW5       30.28R WCI  18          
MONROE         CLOUDY    28  17  64 NW8       30.26R WCI  20          
MT. CLEMENS    PTSUNNY   25  14  61 N15         N/A  WCI  13          
PONTIAC        PTSUNNY   25  13  60 N12       30.23R WCI  14          
PORT HOPE        N/A     20  13  74 N9G16     30.27R WCI   9          
PORT HURON     FLURRIES  25  14  63 N12       30.25R WCI  14          
TRI CITIES     FAIR      24  11  57 NE7       30.31R WCI  16          
MIDLAND        FAIR      26   7  45 CALM      30.30R                  
TROY           CLOUDY    26  14  60 N9        30.27R WCI  17          
SAGINAW HB     FAIR      23  12  63 NE9       30.31R WCI  13          
$$
MIZ043>046-050>051-056>058-064>065-071>073-077>080-182000-
SOUTHWEST LOWER MICHIGAN
  
CITY           SKY/WX    TMP DP  RH WIND       PRES   REMARKS
BATTLE CREEK   CLOUDY    25  14  63 VRB5      30.29R WCI  19          
BENTON HARBOR  FAIR      26  16  65 N5        30.34R WCI  20          
BIG RAPIDS     FAIR      24   7  49 N7        30.29R WCI  16          
COLDWATER      CLOUDY    26  16  67 NW7       30.28R WCI  18          
FREMONT        FAIR      25   8  48 NW3       30.32R                  
HOLLAND        FAIR      27  11  51 CALM      30.32S                  
GRAND RAPIDS   FAIR      28  12  51 VRB3      30.30R                  
IONIA          CLOUDY    25   9  50 NW6       30.29S WCI  18          
KALAMAZOO      CLOUDY    25  14  63 N8        30.30R WCI  16          
LUDINGTON      PTSUNNY   24  10  55 N13       30.34R WCI  12          
MARSHALL       CLOUDY    26  15  64 CALM      30.28R                  
MOUNT PLEASANT FAIR      24   6  44 CALM      30.29R                  
MUSKEGON       FAIR      29   8  41 NW3       30.33R                  
SOUTH HAVEN    FAIR      26  14  60 N8        30.32S WCI  18          
$$
MIZ016>042-182000-
NORTHERN LOWER MICHIGAN
  
CITY           SKY/WX    TMP DP  RH WIND       PRES   REMARKS
ALPENA         FAIR      16   5  62 N16       30.32R WCI   1          
BEAVER ISLAND  FAIR      16   3  58 N7        30.35S WCI   6          
BELLAIRE       FAIR      19   5  54 NW6       30.35R WCI  11          
CADILLAC       FAIR      20   2  46 NW8       30.26R WCI  10          
CHARLEVOIX     PTSUNNY   16   8  70 NW9       30.38S WCI   4          
FRANKFORT      FLURRIES  20  10  65 NE3       30.36R                  
GAYLORD        PTSUNNY   17   3  54 W6        30.25S WCI   9          
GRAYLING       FAIR      19   6  56 N10       30.26S WCI   7          
HARBOR SPRINGS FAIR      14   5  66 SW7       30.33S WCI   4          
HOUGHTON LAKE  FAIR      21   4  47 N9G17     30.27R WCI  11          
MANISTEE       PTSUNNY   25  11  55 NW12      30.35R WCI  14          
OSCODA         FAIR      19   8  60 N9        30.29R WCI   9          
PELLSTON       FAIR      18   2  49 N7        30.34S WCI   9          
ROGERS CITY    FAIR      13   6  72 N9        30.34R WCI   1          
TRAVERSE CITY  PTSUNNY   18  10  71 N9        30.35R WCI   7          
$$
MIZ007>008-015-182000-
EASTERN UPPER MICHIGAN
  
CITY           SKY/WX    TMP DP  RH WIND       PRES   REMARKS
KINROSS        FAIR      13  -1  54 NW13      30.33S WCI  -2          
MACKINAC ISLAN FAIR      13   1  60 W7        30.33S WCI   3          
NEWBERRY       FAIR      13   1  60 MISG      30.34R                  
S. S. MARIE    FAIR      11  -2  56 NW9       30.33F WCI  -2          
MUNISING         N/A     17   7  64 N12       30.38R WCI   4          
$$
MIZ004>006-011>014-085-182000-
CENTRAL UPPER MICHIGAN
  
CITY           SKY/WX    TMP DP  RH WIND       PRES   REMARKS
MANISTIQUE     PTSUNNY   16  -1  45 N10       30.35S WCI   4          
ESCANABA       FLURRIES  20   7  57 NW10G21   30.38R WCI   9          
MENOMINEE      PTSUNNY   27  10  49 N9        30.39S WCI  18          
SAWYER-GWINN   PTSUNNY   12   5  73 NW9       30.34R WCI   0          
$$
MIZ001>003-009>011-084-182000-
WESTERN UPPER MICHIGAN
  
CITY           SKY/WX    TMP DP  RH WIND       PRES   REMARKS
IRON MOUNTAIN  FAIR      15   4  61 NW8       30.35S WCI   4          
HOUGHTON       FAIR      11  -1  58 NW8       30.38S WCI  -1          
COPPER HARBOR    N/A     11   1  64 N12       30.42S WCI  -3          
IRONWOOD       PTSUNNY   17   4  56 NW8       30.41S WCI   7          
$$

ABBREVIATIONS USED IN REMARKS
   TC - TEMPERATURE IN CELSIUS
  WCI - WIND CHILL INDEX
   HX - HEAT INDEX
  VSB - VISIBILITY